Simultaneous Nadir Overpasses (SNOs) Predictions

Prediction of SNOs between LANDSAT-8 and NPP Satellite Orbit:

Table of predicted SNOs for the next 14.0 days since TLE Epoch: 5/4/2019
Index Date (LANDSAT-8) Time (LANDSAT-8) Lat,Lon (LANDSAT-8) SZA (LANDSAT-8 ) Date (NPP) Time (NPP) Lat,Lon (NPP) SZA (NPP ) Distance(km) Time Diff (sec)
1 05/04/2019 06:08:12 70.76, 85.19 54.78 05/04/2019 06:07:03 70.82, 83.40 54.87 65.78 69
2 05/04/2019 06:57:52 -70.11,-108.14 125.88 05/04/2019 06:57:33 -70.09,-108.12 125.89 2.35 19
3 05/04/2019 07:47:19 70.00, 59.36 54.01 05/04/2019 07:48:17 69.98, 59.36 53.98 3.04 58
4 05/06/2019 22:24:54 70.18,-159.79 53.45 05/06/2019 22:23:48 70.19,-159.84 53.46 1.96 66
5 05/06/2019 23:14:24 -70.08, 7.69 126.67 05/06/2019 23:14:30 -70.10, 7.63 126.65 2.74 6
6 05/07/2019 00:03:56 69.64, 174.73 52.90 05/07/2019 00:05:06 69.61, 175.66 52.85 36.29 70
7 05/09/2019 14:41:26 70.13, -44.00 52.66 05/09/2019 14:40:43 70.15, -44.01 52.69 2.45 43
8 05/09/2019 15:30:56 -70.03, 123.49 127.45 05/09/2019 15:31:25 -70.05, 123.47 127.43 2.23 29
9 05/12/2019 06:08:18 -70.99, -94.50 127.19 05/12/2019 06:07:11 -71.05, -97.00 127.07 90.81 67
10 05/12/2019 06:57:59 70.11, 71.84 51.95 05/12/2019 06:57:39 70.11, 71.82 51.95 0.61 20
11 05/12/2019 07:47:29 -70.01,-120.67 128.16 05/12/2019 07:48:21 -70.01,-120.70 128.17 1.55 52
12 05/14/2019 22:25:05 -70.24, 20.24 128.58 05/14/2019 22:23:52 -70.22, 20.10 128.58 5.18 73
13 05/14/2019 23:14:33 70.06,-172.36 51.25 05/14/2019 23:14:35 70.07,-172.35 51.26 0.94 2
14 05/15/2019 00:04:04 -69.92, -4.94 128.91 05/15/2019 00:05:16 -69.91, -4.79 128.92 5.54 72
15 05/17/2019 14:41:40 -70.17, 136.01 129.27 05/17/2019 14:40:48 -70.18, 135.93 129.25 3.15 52
16 05/17/2019 15:31:07 70.05, -56.52 50.61 05/17/2019 15:31:31 70.03, -56.53 50.60 2.15 24




NCC Satellite Simultaneous Nadir Overpasses (SNOs) Prediction Service
